Location: Newark
(29.9790°N, 31.1340°E)
Time: 01:54:49
(UTC+00:00)

Transit 2A Rocket - Pass Details

Date: 19 January 2020
Orbit: 591 x 912 km, 66.7° (Epoch: 21 February)

Event Time Altitude Azimuth Distance (km) Brightness Sun altitude
Rises 15:26:57 0° 306° (NW) 3,139 8.7 -2.0°
Reaches altitude 10° 15:30:46 10° 277° (W) 2,294 8.7 -2.8°
Maximum altitude 15:32:45 12° 254° (WSW) 2,184 9.2 -3.2°
Drops below altitude 10° 15:34:49 10° 232° (SW) 2,372 9.1 -3.6°
Sets 15:38:57 0° 203° (SSW) 3,376 9.1 -4.5°
